Beatrice, NE

1:09 PM CDT on June 25, 2017 (GMT -0500)
Beatrice Municipal

Weather History for KBIE - February, 2013

Change the Weather History Date:

Sunday, February 17, 2013

  Actual Average Record
Temperature  
Mean Temperature 44 °F -  
Max Temperature 62 °F 44 °F 72 °F (2017)
Min Temperature 25 °F 19 °F -12 °F (1978)
Degree Days  
Heating Degree Days 22    
Moisture  
Dew Point 23 °F    
Average Humidity 49    
Maximum Humidity 73    
Minimum Humidity 22    
Precipitation  
Precipitation 0.00 in - - ()
Sea Level Pressure  
Sea Level Pressure 29.78 in    
Wind  
Wind Speed 7 mph (SSE)    
Max Wind Speed 18 mph    
Max Gust Speed 24 mph    
Visibility 10 miles    
Events      
Averages and records for this station are not official NWS values.
T = Trace of Precipitation, MM = Missing Value Source: NWS Daily Summary

Daily Weather History Graph

Daily Weather History Graph

Search for Another Location

Airport or City:

Trip Planner

Search our weather history database for the weather conditions in past years. The results will help you decide how hot, cold, wet, or windy it might be!

Date:

Astronomy

Feb. 17, 2013 Rise Set
Actual Time 7:17 AM CST 6:05 PM CST
Civil Twilight 6:49 AM CST 6:32 PM CST
Nautical Twilight 6:17 AM CST 7:04 PM CST
Astronomical Twilight 5:46 AM CST 7:36 PM CST
Moon 11:10 AM CST (2/17) 1:02 AM CST (2/17)
Length of Visible Light 11h 43m
Length of Day
10h 47m
Waxing Crescent, 49% of the Moon is Illuminated
Feb 17
Waxing Crescent
Feb 17
First Quarter
Feb 25
Full
Mar 4
Last Quarter
Mar 11
New

Hourly Weather History & Observations

Time (CST) Temp. Windchill Dew Point Humidity Pressure Visibility Wind Dir Wind Speed Gust Speed Precip Events Conditions
12:15 AM 30.9 °F 25.2 °F 18.1 °F 59% 29.98 in 10.0 mi SSE 5.8 mph - N/A   Clear
12:35 AM 30.6 °F 25.8 °F 18.1 °F 60% 29.98 in 10.0 mi SE 4.6 mph - N/A   Clear
12:55 AM 29.8 °F 26.3 °F 18.0 °F 61% 29.98 in 10.0 mi SE 3.5 mph - N/A   Clear
1:15 AM 29.8 °F 26.3 °F 18.0 °F 61% 29.98 in 10.0 mi SE 3.5 mph - N/A   Clear
1:35 AM 29.3 °F - 18.1 °F 63% 29.98 in 10.0 mi Calm Calm - N/A   Clear
1:55 AM 28.4 °F - 18.1 °F 65% 29.98 in 10.0 mi Calm Calm - N/A   Clear
2:15 AM 27.5 °F 23.6 °F 18.0 °F 67% 29.97 in 10.0 mi SSE 3.5 mph - N/A   Clear
2:35 AM 28.0 °F 24.2 °F 18.3 °F 67% 29.97 in 10.0 mi SE 3.5 mph - N/A   Clear
2:55 AM 28.2 °F - 18.3 °F 66% 29.96 in 10.0 mi Calm Calm - N/A   Clear
3:15 AM 27.5 °F 23.6 °F 18.3 °F 68% 29.96 in 10.0 mi SSE 3.5 mph - N/A   Clear
3:35 AM 27.7 °F - 18.5 °F 68% 29.96 in 10.0 mi Calm Calm - N/A   Clear
3:55 AM 26.8 °F 22.8 °F 18.3 °F 70% 29.95 in 10.0 mi SE 3.5 mph - N/A   Clear
4:15 AM 26.6 °F 22.6 °F 18.3 °F 71% 29.94 in 10.0 mi ESE 3.5 mph - N/A   Clear
4:35 AM 26.6 °F 22.6 °F 18.1 °F 70% 29.94 in 10.0 mi SE 3.5 mph - N/A   Clear
4:55 AM 26.2 °F 22.1 °F 18.1 °F 71% 29.94 in 10.0 mi SE 3.5 mph - N/A   Clear
5:15 AM 26.2 °F 20.7 °F 18.0 °F 71% 29.93 in 10.0 mi SSE 4.6 mph - N/A   Clear
5:35 AM 27.3 °F 20.9 °F 18.5 °F 69% 29.93 in 10.0 mi SSE 5.8 mph - N/A   Clear
5:55 AM 27.1 °F 21.8 °F 18.5 °F 70% 29.93 in 10.0 mi SSE 4.6 mph - N/A   Clear
6:15 AM 26.6 °F 21.2 °F 18.1 °F 70% 29.93 in 10.0 mi SSE 4.6 mph - N/A   Clear
6:35 AM 25.9 °F 21.7 °F 18.0 °F 72% 29.91 in 10.0 mi SE 3.5 mph - N/A   Clear
6:55 AM 25.7 °F 20.1 °F 18.1 °F 73% 29.92 in 10.0 mi SSE 4.6 mph - N/A   Clear
7:15 AM 26.2 °F 22.1 °F 18.0 °F 71% 29.91 in 10.0 mi SE 3.5 mph - N/A   Clear
7:35 AM 25.7 °F 20.1 °F 18.1 °F 73% 29.91 in 10.0 mi SE 4.6 mph - N/A   Clear
7:55 AM 27.0 °F 20.5 °F 18.5 °F 70% 29.90 in 10.0 mi SE 5.8 mph - N/A   Clear
8:15 AM 28.6 °F 23.5 °F 19.2 °F 68% 29.91 in 10.0 mi SSE 4.6 mph - N/A   Clear
8:35 AM 30.2 °F 24.3 °F 19.6 °F 65% 29.90 in 10.0 mi SE 5.8 mph - N/A   Clear
8:55 AM 32.0 °F 26.4 °F 20.8 °F 63% 29.89 in 10.0 mi SSE 5.8 mph - N/A   Clear
9:15 AM 33.4 °F 27.3 °F 21.7 °F 62% 29.89 in 10.0 mi SSE 6.9 mph - N/A   Clear
9:35 AM 35.4 °F 29.0 °F 22.8 °F 60% 29.88 in 10.0 mi SSE 8.1 mph - N/A   Clear
9:55 AM 37.0 °F 30.4 °F 23.4 °F 58% 29.87 in 10.0 mi SSE 9.2 mph - N/A   Clear
10:15 AM 39.4 °F 33.2 °F 23.9 °F 54% 29.87 in 10.0 mi SSE 9.2 mph - N/A   Clear
10:35 AM 41.9 °F 36.9 °F 24.4 °F 50% 29.87 in 10.0 mi South 8.1 mph - N/A   Clear
10:55 AM 44.2 °F 39.7 °F 25.2 °F 47% 29.86 in 10.0 mi SSE 8.1 mph - N/A   Clear
11:15 AM 46.8 °F - 25.7 °F 44% 29.85 in 10.0 mi South 10.4 mph - N/A   Clear
11:35 AM 49.6 °F - 26.1 °F 40% 29.83 in 10.0 mi SSE 11.5 mph 17.3 mph N/A   Clear
11:55 AM 50.2 °F - 25.5 °F 38% 29.82 in 10.0 mi SSE 11.5 mph - N/A   Clear
12:15 PM 51.8 °F - 25.5 °F 36% 29.80 in 10.0 mi SSE 11.5 mph 16.1 mph N/A   Clear
12:35 PM 53.2 °F - 25.3 °F 34% 29.78 in 10.0 mi SSE 10.4 mph - N/A   Clear
12:55 PM 54.9 °F - 25.3 °F 32% 29.77 in 10.0 mi SSE 12.7 mph 18.4 mph N/A   Clear
1:06 PM 55.4 °F - 24.8 °F 31% 29.76 in 10.0 mi South 13.8 mph 18.4 mph N/A   Clear
1:15 PM 56.3 °F - 24.4 °F 29% 29.76 in 10.0 mi SSE 13.8 mph - N/A   Clear
1:35 PM 58.3 °F - 24.1 °F 27% 29.74 in 10.0 mi South 13.8 mph - N/A   Clear
1:55 PM 60.1 °F - 23.4 °F 24% 29.72 in 10.0 mi South 17.3 mph 21.9 mph N/A   Clear
2:15 PM 60.8 °F - 23.2 °F 24% 29.71 in 10.0 mi South 13.8 mph - N/A   Clear
2:35 PM 61.0 °F - 22.8 °F 23% 29.70 in 10.0 mi South 15.0 mph 23.0 mph N/A   Clear
2:55 PM 62.6 °F - 22.5 °F 22% 29.69 in 10.0 mi South 18.4 mph 24.2 mph N/A   Clear
3:15 PM 61.5 °F - 21.9 °F 22% 29.68 in 10.0 mi South 15.0 mph - N/A   Clear
3:35 PM 60.8 °F - 23.5 °F 24% 29.67 in 10.0 mi SSE 13.8 mph - N/A   Clear
3:55 PM 61.2 °F - 23.9 °F 24% 29.65 in 10.0 mi SSE 13.8 mph - N/A   Clear
4:15 PM 61.0 °F - 24.4 °F 25% 29.64 in 10.0 mi SSE 12.7 mph - N/A   Clear
4:35 PM 61.2 °F - 24.4 °F 25% 29.64 in 10.0 mi SSE 10.4 mph - N/A   Clear
4:55 PM 60.8 °F - 24.4 °F 25% 29.63 in 10.0 mi South 10.4 mph - N/A   Clear
5:15 PM 60.1 °F - 23.7 °F 25% 29.62 in 10.0 mi SSE 9.2 mph - N/A   Clear
5:35 PM 59.0 °F - 24.3 °F 26% 29.62 in 10.0 mi SE 8.1 mph - N/A   Clear
5:55 PM 57.0 °F - 24.8 °F 29% 29.61 in 10.0 mi SE 9.2 mph - N/A   Clear
6:15 PM 55.4 °F - 25.3 °F 31% 29.61 in 10.0 mi SE 6.9 mph - N/A   Clear
6:35 PM 53.6 °F - 25.7 °F 34% 29.61 in 10.0 mi SE 8.1 mph - N/A   Clear
6:55 PM 53.1 °F - 25.7 °F 35% 29.61 in 10.0 mi SE 9.2 mph - N/A   Clear
7:15 PM 51.8 °F - 26.1 °F 37% 29.61 in 10.0 mi SE 9.2 mph - N/A   Clear
7:35 PM 51.3 °F - 26.4 °F 38% 29.61 in 10.0 mi SSE 11.5 mph 17.3 mph N/A   Clear
7:55 PM 50.9 °F - 27.0 °F 40% 29.61 in 10.0 mi SSE 11.5 mph - N/A   Clear
8:15 PM 50.4 °F - 27.5 °F 41% 29.60 in 10.0 mi SSE 10.4 mph - N/A   Clear
8:35 PM 50.0 °F - 28.0 °F 43% 29.60 in 10.0 mi SSE 12.7 mph - N/A   Clear
8:55 PM 50.0 °F - 28.4 °F 43% 29.60 in 10.0 mi SSE 10.4 mph 16.1 mph N/A   Clear
9:15 PM 48.9 °F - 28.4 °F 45% 29.59 in 10.0 mi SSE 9.2 mph - N/A   Clear
9:35 PM 49.1 °F - 28.8 °F 45% 29.59 in 10.0 mi SSE 10.4 mph - N/A   Clear
9:55 PM 48.7 °F - 28.8 °F 46% 29.58 in 10.0 mi SSE 9.2 mph - N/A   Clear
10:15 PM 48.2 °F - 28.9 °F 47% 29.58 in 10.0 mi SSE 10.4 mph - N/A   Clear
10:35 PM 47.7 °F - 28.9 °F 48% 29.57 in 10.0 mi SSE 10.4 mph - N/A   Clear
10:55 PM 47.5 °F - 28.9 °F 49% 29.56 in 10.0 mi SSE 10.4 mph - N/A   Clear
11:15 PM 47.5 °F - 28.6 °F 48% 29.56 in 10.0 mi SSE 10.4 mph - N/A   Clear
11:35 PM 47.7 °F - 28.4 °F 47% 29.54 in 10.0 mi SSE 9.2 mph - N/A   Clear
11:55 PM 47.3 °F - 28.2 °F 48% 29.54 in 10.0 mi SSE 8.1 mph - N/A   Clear